THORAD AGENA D DEB, 4920

Orbit data source: Space-Track

THORAD AGENA D DEB, 4920 is space debris in SSO originally from a launch on Wed, 08 Apr 1970 UTC launched from the Air Force Western Test Range (AFWTR). Debris objects in space refer to the collection of defunct objects orbiting the Earth. Examples of debris include non-operational satellites, rocket bodies, and fragments generated from explosions, collisions, or faulty payload assembly.

Loading next visibility...
Identifier
4920, 1970-025FS
Orbit
SSO
Country
Flag of USUS
Related business
Manufacturer
Unknown
Mission
Spacecraft
Bus & Motor
Unknown
Mass
Unknown
Launch date (UTC)
1970-04-08 (56 years ago)
Launch vehicle
Unknown
Launch site
Air Force Western Test Range (AFWTR)
Object type
Payload
Rocket body
Debris
Shape & HBR
Unknown shape, 0.2 m
Radar Cross Section
Small (<0.1 m²)

Expand to show TLE details & history
Last TLE update: 21 hours ago

TLE from 21 hours ago
0 THORAD AGENA D DEB
1 04920U 70025FS  25340.73936002  .00000632  00000-0  10259-2 0  9993
2 04920  99.4499 239.8434 0089851 129.0156 300.4343 13.50337170727596
Epoch: 2025-12-06T17:44Z
TLE epoch observation values (Epoch: 2025-12-06T17:44:40.705Z)
Latitude
66.74084°
Longitude
-124.74762°
Altitude
1,049.028 km
Speed
7.35 km/s
True Right ascension
14h 28m 44s
True Declination
66° 37' 15"
Sunlit
Object was in daylight at epoch
Visualization orbit readout
Latitude
Unknown
Longitude
Unknown
Altitude
Unknown
Speed
Unknown
Apparent Right ascension
Unknown
Apparent Declination
Unknown
Sunlit
N/A
Visualization observer readout
Local Sidereal Time
12:22:58
Azimuth
Unknown
Elevation
Unknown
Doppler factor
Unknown
Orbital elements
Apogee altitude
1,135.213 km
Perigee altitude
1,001.399 km
Semi-major axis
7,446.443 km
Eccentricity
0.00899
Inclination
99.4499°
RAAN
239.8434°
Arg. of periapsis
129.0156°
True anomaly
299.54151°
Mean anomaly
300.4343°
Eccentric anomaly
299.98841°
Mean motion
3.37769 °/min
Orbital period
106.58 mins
BSTAR
0.0010259
Loading maneuver chart data...
Computing Atmospheric mass density...

Documentation

Showing up to 5 results
|